When you browse on this site, cookies collect data to enhance your experience and personalize the content and advertising you see.
Visit our Privacy Policy to learn more. By continuing to use the site, you agree to this use of cookies and data.
  • In Slovakia
  • List of Countries
  • For 7 days
  • Water Temperature
  • Satellite Maps
  • Weather Map
  • Weather Widgets
  • user-avatar
    Login

    Hourly Weather Gugoly

    Today, 17 July, Wednesday

    Time Temperature Precipitation Wind Pressure Humidity
    00:00 +12°C° 0 mm 3 mps 747 mmHg 94%
    01:00 +11°C° 0 mm 3 mps 747 mmHg 96%
    02:00 +12°C° 0.1 mm 4 mps 746 mmHg 96%
    03:00 +12°C° 0.1 mm 4 mps 746 mmHg 96%
    04:00 +12°C° 0.1 mm 5 mps 746 mmHg 96%
    05:00 +13°C° 0 mm 5 mps 746 mmHg 91%
    06:00 +14°C° 0 mm 6 mps 746 mmHg 87%
    07:00 +14°C° 0 mm 6 mps 746 mmHg 82%
    08:00 +15°C° 0.1 mm 6 mps 746 mmHg 78%
    09:00 +16°C° 0.1 mm 6 mps 746 mmHg 73%
    10:00 +17°C° 0.1 mm 6 mps 747 mmHg 69%
    11:00 +17°C° 0.2 mm 6 mps 747 mmHg 67%
    12:00 +18°C° 0.2 mm 7 mps 747 mmHg 66%
    13:00 +20°C° 0.2 mm 7 mps 747 mmHg 64%
    14:00 +20°C° 0 mm 6 mps 747 mmHg 62%
    15:00 +20°C° 0 mm 6 mps 747 mmHg 60%
    16:00 +20°C° 0 mm 6 mps 747 mmHg 58%
    17:00 +19°C° 0 mm 5 mps 747 mmHg 64%
    18:00 +18°C° 0 mm 4 mps 747 mmHg 69%
    19:00 +16°C° 0 mm 3 mps 747 mmHg 75%
    20:00 +14°C° 0 mm 3 mps 748 mmHg 80%
    21:00 +13°C° 0 mm 2 mps 748 mmHg 85%
    22:00 +12°C° 0 mm 2 mps 748 mmHg 90%
    23:00 +10°C° 0 mm 2 mps 748 mmHg 91%

    Tomorrow, 18 July, Thursday

    Time Temperature Precipitation Wind Pressure Humidity
    00:00 +10°C° 0 mm 2 mps 748 mmHg 92%
    01:00 +9°C° 0 mm 2 mps 749 mmHg 93%
    02:00 +9°C° 0 mm 2 mps 749 mmHg 94%
    03:00 +9°C° 0 mm 2 mps 749 mmHg 94%
    04:00 +9°C° 0 mm 2 mps 749 mmHg 95%
    05:00 +12°C° 0 mm 2 mps 749 mmHg 90%
    06:00 +13°C° 0 mm 2 mps 749 mmHg 85%
    07:00 +15°C° 0 mm 2 mps 749 mmHg 80%
    08:00 +16°C° 0 mm 2 mps 749 mmHg 74%
    09:00 +18°C° 0 mm 2 mps 749 mmHg 68%
    10:00 +19°C° 0 mm 2 mps 749 mmHg 62%
    11:00 +20°C° 0 mm 2 mps 749 mmHg 61%
    12:00 +21°C° 0 mm 2 mps 749 mmHg 59%
    13:00 +21°C° 0 mm 2 mps 749 mmHg 57%
    14:00 +21°C° 0 mm 2 mps 749 mmHg 56%
    15:00 +23°C° 0 mm 2 mps 748 mmHg 56%
    16:00 +23°C° 0 mm 2 mps 748 mmHg 55%
    17:00 +22°C° 0 mm 1 mps 748 mmHg 60%
    18:00 +21°C° 0 mm 1 mps 748 mmHg 65%
    19:00 +20°C° 0 mm 1 mps 749 mmHg 70%
    20:00 +19°C° 0 mm 1 mps 749 mmHg 75%
    21:00 +16°C° 0 mm 1 mps 749 mmHg 79%
    22:00 +15°C° 0 mm 1 mps 750 mmHg 84%
    23:00 +14°C° 0 mm 1 mps 750 mmHg 86%

    Day after tomorrow, 19 July, Friday

    Time Temperature Precipitation Wind Pressure Humidity
    00:00 +14°C° 0 mm 1 mps 749 mmHg 87%
    01:00 +14°C° 0 mm 1 mps 749 mmHg 89%
    02:00 +13°C° 0 mm 1 mps 749 mmHg 89%
    03:00 +13°C° 0 mm 1 mps 749 mmHg 90%
    04:00 +13°C° 0 mm 1 mps 750 mmHg 90%
    05:00 +15°C° 0 mm 1 mps 750 mmHg 84%
    06:00 +18°C° 0 mm 1 mps 750 mmHg 79%
    07:00 +19°C° 0 mm 1 mps 750 mmHg 73%
    08:00 +21°C° 0 mm 1 mps 750 mmHg 66%
    09:00 +22°C° 0 mm 1 mps 750 mmHg 59%
    10:00 +24°C° 0 mm 1 mps 750 mmHg 53%
    11:00 +24°C° 0 mm 1 mps 750 mmHg 51%
    12:00 +25°C° 0 mm 1 mps 750 mmHg 49%
    13:00 +25°C° 0 mm 1 mps 749 mmHg 47%
    14:00 +25°C° 0 mm 1 mps 749 mmHg 47%
    15:00 +25°C° 0 mm 1 mps 749 mmHg 47%
    16:00 +25°C° 0 mm 1 mps 749 mmHg 47%
    17:00 +24°C° 0 mm 1 mps 749 mmHg 52%
    18:00 +23°C° 0 mm 1 mps 749 mmHg 58%
    19:00 +22°C° 0 mm 1 mps 749 mmHg 64%
    20:00 +20°C° 0 mm 2 mps 749 mmHg 65%
    21:00 +19°C° 0 mm 2 mps 750 mmHg 67%
    22:00 +18°C° 0 mm 2 mps 750 mmHg 69%
    23:00 +17°C° 0 mm 2 mps 750 mmHg 70%

    20 July, Saturday

    Time Temperature Precipitation Wind Pressure Humidity
    00:00 +17°C° 0 mm 2 mps 750 mmHg 72%
    01:00 +17°C° 0 mm 2 mps 750 mmHg 73%
    02:00 +16°C° 0 mm 2 mps 750 mmHg 74%
    03:00 +16°C° 0 mm 2 mps 750 mmHg 74%
    04:00 +16°C° 0 mm 2 mps 750 mmHg 75%
    05:00 +17°C° 0 mm 2 mps 750 mmHg 71%
    06:00 +19°C° 0 mm 2 mps 750 mmHg 68%
    07:00 +21°C° 0 mm 2 mps 751 mmHg 64%
    08:00 +23°C° 0 mm 2 mps 751 mmHg 59%
    09:00 +25°C° 0 mm 2 mps 751 mmHg 54%
    10:00 +26°C° 0 mm 2 mps 751 mmHg 48%
    11:00 +27°C° 0 mm 2 mps 751 mmHg 47%
    12:00 +27°C° 0 mm 2 mps 751 mmHg 45%
    13:00 +28°C° 0 mm 2 mps 751 mmHg 43%
    14:00 +28°C° 0 mm 2 mps 751 mmHg 45%
    15:00 +28°C° 0 mm 2 mps 751 mmHg 46%
    16:00 +28°C° 0 mm 2 mps 751 mmHg 47%
    17:00 +26°C° 0 mm 2 mps 751 mmHg 53%
    18:00 +25°C° 0 mm 2 mps 751 mmHg 59%
    19:00 +24°C° 0 mm 3 mps 751 mmHg 65%
    20:00 +22°C° 0 mm 3 mps 751 mmHg 66%
    21:00 +21°C° 0 mm 3 mps 751 mmHg 66%
    22:00 +20°C° 0 mm 3 mps 751 mmHg 66%
    23:00 +19°C° 0 mm 3 mps 751 mmHg 68%

    21 July, Sunday

    Time Temperature Precipitation Wind Pressure Humidity
    00:00 +19°C° 0 mm 3 mps 751 mmHg 70%
    01:00 +18°C° 0 mm 3 mps 751 mmHg 72%
    02:00 +18°C° 0 mm 3 mps 751 mmHg 74%
    03:00 +18°C° 0 mm 3 mps 751 mmHg 77%
    04:00 +17°C° 0 mm 3 mps 751 mmHg 79%
    05:00 +19°C° 0 mm 3 mps 751 mmHg 77%
    06:00 +20°C° 0 mm 3 mps 751 mmHg 75%
    07:00 +22°C° 0 mm 4 mps 751 mmHg 73%
    08:00 +22°C° 0.8 mm 3 mps 751 mmHg 73%
    09:00 +24°C° 0.8 mm 3 mps 751 mmHg 72%
    10:00 +25°C° 0.8 mm 3 mps 751 mmHg 72%
    11:00 +25°C° 0.7 mm 2 mps 751 mmHg 71%
    12:00 +25°C° 0.7 mm 1 mps 751 mmHg 70%
    13:00 +26°C° 0.7 mm 1 mps 751 mmHg 69%
    14:00 +26°C° 1.1 mm 1 mps 751 mmHg 69%
    15:00 +26°C° 1.1 mm 2 mps 750 mmHg 69%
    16:00 +26°C° 1.1 mm 3 mps 750 mmHg 69%
    17:00 +25°C° 0.8 mm 2 mps 750 mmHg 73%
    18:00 +25°C° 0.8 mm 2 mps 750 mmHg 76%
    19:00 +24°C° 0.8 mm 1 mps 750 mmHg 80%
    20:00 +23°C° 0.1 mm 1 mps 751 mmHg 82%
    21:00 +21°C° 0.1 mm 2 mps 751 mmHg 84%
    22:00 +20°C° 0.1 mm 2 mps 751 mmHg 87%
    23:00 +19°C° 0 mm 3 mps 751 mmHg 89%

    22 July, Monday

    Time Temperature Precipitation Wind Pressure Humidity
    00:00 +19°C° 0 mm 3 mps 751 mmHg 92%
    01:00 +18°C° 0 mm 3 mps 752 mmHg 95%
    02:00 +18°C° 0 mm 3 mps 752 mmHg 96%
    03:00 +17°C° 0 mm 3 mps 752 mmHg 97%
    04:00 +17°C° 0 mm 3 mps 752 mmHg 97%
    05:00 +18°C° 0 mm 3 mps 752 mmHg 94%
    06:00 +19°C° 0 mm 4 mps 753 mmHg 91%
    07:00 +20°C° 0 mm 4 mps 753 mmHg 88%
    08:00 +21°C° 0.2 mm 4 mps 753 mmHg 82%
    09:00 +22°C° 0.2 mm 4 mps 753 mmHg 76%
    10:00 +25°C° 0.2 mm 5 mps 754 mmHg 70%
    11:00 +25°C° 0.4 mm 5 mps 754 mmHg 67%
    12:00 +26°C° 0.4 mm 5 mps 753 mmHg 63%
    13:00 +27°C° 0.4 mm 5 mps 753 mmHg 59%
    14:00 +27°C° 0.5 mm 5 mps 753 mmHg 62%
    15:00 +26°C° 0.5 mm 5 mps 753 mmHg 65%
    16:00 +26°C° 0.5 mm 5 mps 753 mmHg 68%
    17:00 +25°C° 0.1 mm 4 mps 753 mmHg 71%
    18:00 +22°C° 0.1 mm 4 mps 753 mmHg 75%
    19:00 +21°C° 0.1 mm 4 mps 753 mmHg 78%
    20:00 +20°C° 0 mm 3 mps 754 mmHg 83%
    21:00 +19°C° 0 mm 3 mps 754 mmHg 89%
    22:00 +17°C° 0 mm 3 mps 754 mmHg 94%
    23:00 +17°C° 0 mm 3 mps 754 mmHg 95%
    Show more